Location: ??????
(41.3164°N, 22.6615°E)
Time: 11:01:11
(UTC+00:00)

Cosmos 1356 - Pass Details

Date: 16 October 2021
Orbit: 433 x 436 km, 81.1° (Epoch: 02 December)

Event Time Altitude Azimuth Distance (km) Brightness Sun altitude
Rises 16:09:15 0° 357° (N) 2,434 7.1 -5.0°
Reaches altitude 10° 16:11:24 10° 5° (N) 1,561 6.0 -5.4°
Maximum altitude 16:14:39 41° 77° (ENE) 653 3.8 -6.0°
Drops below altitude 10° 16:17:52 10° 149° (SSE) 1,550 5.9 -6.6°
Sets 16:19:59 0° 157° (SSE) 2,415 6.9 -7.0°
